Location: Meanaryar
(48.4161°N, 4.7315°W)
Time: 14:28:40
(UTC+00:00)

NOSS 8 (H) - Pass Details

Date: 18 September 2020
Orbit: 384 x 1790 km, 63.3° (Epoch: 24 October)

Event Time Altitude Azimuth Distance (km) Brightness Sun altitude
Rises 19:06:34 0° 210° (SSW) 2,463 8.4 -7.8°
Reaches altitude 10° 19:08:47 10° 205° (SSW) 1,497 7.2 -8.1°
Maximum altitude 19:11:53 53° 128° (SE) 484 4.2 -8.6°
Drops below altitude 10° 19:14:50 10° 49° (NE) 1,421 6.6 -9.1°
Sets 19:16:53 0° 45° (NE) 2,320 7.7 -9.4°
Enters shadow 19:17:02 -1° 45° (NE) 2,387 7.8 -9.5°
